Погода в Мосьпаново

Украина / Харьковская область     49°38′21″N   36°44′41″E
В апреле 2022 года жителям России запретили посещать сайт meteo.paraplan.net по решению Генеральной прокуратуры. Аудитория сайта уменьшилась в 10 раз. Владельцы сайта не видят смысла в поддержке погодного сервера в таких условиях. Сайт будет закрыт в октябре.
темп.,
°C
ветер,
м/с
пор.,
м/с
влажн.,
%
обл.,
%
осадки,
мм/ч
давл.,
гПа
погр.,
м
5 октября, ср
ср500:00+8юз4118087 0.0 1017394
03:00+9юз5117799 0.0 1018421
06:00+8юз5128540 0.0 1019527
09:00+11зюз7117260 0.0 10201003
12:00+13з7105912 0.4 10211429
15:00+12зсз71063100 0.8 10221306
18:00+10зсз487699 0.0 1023604
21:00+8з488111 0.1 1024216
6 октября, чт
чт600:00+7з3789100 0.0 1025183
03:00+7з3692100 0.0 1026141
06:00+7зюз3691100 0.0 1026131
09:00+11зюз4775100 0.0 1026357
12:00+15з575697 0.0 10251058
15:00+13зюз476788 0.0 1025587
18:00+13зюз376723 0.0 1024172
21:00+10юз36785 0.0 102592
7 октября, пт
пт700:00+10зюз35806 0.0 102581
03:00+9зюз338387 0.0 102440
06:00+8з338970 0.0 102436
09:00+12сз35765 0.0 1025265
12:00+17ссз466418 0.0 1025754
15:00+18с565250 0.0 10251149
18:00+14с34655 0.0 102641
21:00+11ссв35740 0.0 102783
8 октября, сб
сб800:00+9св34810 0.0 102757
03:00+8св33850 0.0 102752
06:00+7всв33904 0.0 102746
09:00+11в35704 0.0 1027273
12:00+16вюв34475 0.0 1025799
15:00+18в34435 0.0 10231055
18:00+14в33575 0.0 102335
21:00+12в35635 0.0 102378
9 октября, вс
вс900:00+11вюв356726 0.0 102276
03:00+10вюв337972 0.0 102134
06:00+9вюв228697 0.0 102130
09:00+13юв366899 0.0 1020239
12:00+18юв344732 0.0 1018861
15:00+19ююз224163 0.0 10171401
18:00+15сз2258100 0.0 101818
21:00+14ссз51173100 0.0 1019476